Weather History for Clinton, OK

Change the Weather History Date:

Thursday, March 21, 2013

  Actual Average (KCSM) Record (KCSM)
Temperature  
Mean Temperature 54 °F -  
Max Temperature 68 °F 60 °F 88 °F (1997)
Min Temperature 41 °F 39 °F 25 °F (2002)
Degree Days  
Heating Degree Days 10    
Growing Degree Days 4 (Base 50)    
Moisture  
Dew Point 32 °F    
Average Humidity 48    
Maximum Humidity 70    
Minimum Humidity 31    
Precipitation  
Precipitation 0.00 in - - ()
Sea Level Pressure  
Sea Level Pressure 29.68 in    
Wind  
Wind Speed 15 mph (SE)    
Max Wind Speed 24 mph    
Max Gust Speed 31 mph    
Visibility 10 miles    
Events      
Averages and records for this station are not official NWS values.
T = Trace of Precipitation, MM = Missing Value Source: NWS Daily Summary

Daily Weather History Graph

Daily Weather History Graph

Search for Another Location

Airport:

Trip Planner

Search our weather history database for the weather conditions in past years. The results will help you decide how hot, cold, wet, or windy it might be!

Date:

Astronomy

Mar. 21, 2013 Rise Set
Actual Time 7:37 AM CDT 7:48 PM CDT
Civil Twilight 7:12 AM CDT 8:14 PM CDT
Nautical Twilight 6:42 AM CDT 8:43 PM CDT
Astronomical Twilight 6:12 AM CDT 9:13 PM CDT
Moon 2:29 PM CDT (3/21) 3:50 AM CDT (3/21)
Length of Visible Light 13h 01m
Length of Day
12h 11m
Waxing Gibbous, 69% of the Moon is Illuminated
Mar 21
Waxing Gibbous
Mar 27
Full
Apr 2
Last Quarter
Apr 10
New
Apr 18
First Quarter

Hourly Weather History & Observations

Time (CDT) Temp. Windchill Dew Point Humidity Pressure Visibility Wind Dir Wind Speed Gust Speed Precip Events Conditions
12:15 AM 48.2 °F - 26.6 °F 43% 29.95 in 10.0 mi SE 10.4 mph 16.1 mph N/A   Clear
12:35 AM 46.4 °F 40.7 °F 28.4 °F 50% 29.94 in 10.0 mi SSE 12.7 mph 17.3 mph N/A   Clear
12:55 AM 48.2 °F - 26.6 °F 43% 29.93 in 10.0 mi SE 16.1 mph - N/A   Clear
1:15 AM 48.2 °F - 26.6 °F 43% 29.92 in 10.0 mi SSE 16.1 mph - N/A   Clear
1:35 AM 46.4 °F 40.1 °F 26.6 °F 46% 29.90 in 10.0 mi SE 15.0 mph - N/A   Clear
1:55 AM 46.4 °F 40.4 °F 26.6 °F 46% 29.90 in 10.0 mi SSE 13.8 mph - N/A   Clear
2:15 AM 46.4 °F 39.8 °F 26.6 °F 46% 29.88 in 10.0 mi SSE 16.1 mph 21.9 mph N/A   Clear
2:35 AM 44.6 °F 38.1 °F 26.6 °F 49% 29.87 in 10.0 mi SSE 13.8 mph - N/A   Clear
2:55 AM 44.6 °F 38.1 °F 26.6 °F 49% 29.86 in 10.0 mi SSE 13.8 mph - N/A   Clear
3:15 AM 44.6 °F 38.8 °F 26.6 °F 49% 29.86 in 10.0 mi SE 11.5 mph - N/A   Clear
3:35 AM 44.6 °F 38.4 °F 26.6 °F 49% 29.85 in 10.0 mi SE 12.7 mph 19.6 mph N/A   Clear
3:55 AM 44.6 °F 38.1 °F 28.4 °F 53% 29.84 in 10.0 mi SSE 13.8 mph - N/A   Clear
4:15 AM 42.8 °F 35.8 °F 28.4 °F 57% 29.83 in 10.0 mi SSE 13.8 mph - N/A   Clear
4:35 AM 42.8 °F 36.2 °F 28.4 °F 57% 29.81 in 10.0 mi SE 12.7 mph - N/A   Clear
4:55 AM 42.8 °F 36.6 °F 28.4 °F 57% 29.81 in 10.0 mi SSE 11.5 mph - N/A   Clear
5:15 AM 42.8 °F 36.2 °F 28.4 °F 57% 29.79 in 10.0 mi SSE 12.7 mph - N/A   Clear
5:35 AM 42.8 °F 36.6 °F 28.4 °F 57% 29.78 in 10.0 mi SE 11.5 mph - N/A   Clear
5:55 AM 42.8 °F 36.2 °F 28.4 °F 57% 29.77 in 10.0 mi SE 12.7 mph - N/A   Clear
6:15 AM 42.8 °F 36.6 °F 28.4 °F 57% 29.76 in 10.0 mi SSE 11.5 mph - N/A   Clear
6:35 AM 42.8 °F 35.8 °F 28.4 °F 57% 29.76 in 10.0 mi SE 13.8 mph - N/A   Clear
6:55 AM 42.8 °F 35.8 °F 28.4 °F 57% 29.75 in 10.0 mi SSE 13.8 mph - N/A   Clear
7:15 AM 42.8 °F 36.2 °F 28.4 °F 57% 29.75 in 10.0 mi SSE 12.7 mph - N/A   Clear
7:35 AM 42.8 °F 36.6 °F 28.4 °F 57% 29.75 in 10.0 mi SE 11.5 mph - N/A   Clear
7:55 AM 42.8 °F 36.2 °F 30.2 °F 61% 29.75 in 10.0 mi SE 12.7 mph - N/A   Scattered Clouds
8:15 AM 44.6 °F 38.1 °F 30.2 °F 57% 29.74 in 10.0 mi SE 13.8 mph - N/A   Overcast
8:35 AM 44.6 °F 38.1 °F 30.2 °F 57% 29.73 in 10.0 mi SSE 13.8 mph - N/A   Overcast
8:55 AM 44.6 °F 38.1 °F 30.2 °F 57% 29.72 in 10.0 mi SSE 13.8 mph - N/A   Overcast
9:15 AM 46.4 °F 41.1 °F 30.2 °F 53% 29.72 in 10.0 mi SSE 11.5 mph - N/A   Overcast
9:35 AM 50.0 °F - 30.2 °F 47% 29.71 in 10.0 mi SSE 16.1 mph 20.7 mph N/A   Overcast
9:55 AM 50.0 °F - 30.2 °F 47% 29.71 in 10.0 mi SSE 17.3 mph - N/A   Overcast
10:15 AM 50.0 °F - 30.2 °F 47% 29.70 in 10.0 mi SSE 20.7 mph 25.3 mph N/A   Overcast
10:35 AM 50.0 °F - 30.2 °F 47% 29.69 in 10.0 mi SSE 21.9 mph 25.3 mph N/A   Overcast
10:55 AM 51.8 °F - 30.2 °F 44% 29.68 in 10.0 mi SSE 21.9 mph 25.3 mph N/A   Overcast
11:15 AM 53.6 °F - 32.0 °F 44% 29.66 in 10.0 mi SSE 17.3 mph - N/A   Overcast
11:35 AM 55.4 °F - 30.2 °F 38% 29.65 in 10.0 mi SSE 21.9 mph 27.6 mph N/A   Overcast
11:55 AM 55.4 °F - 30.2 °F 38% 29.65 in 10.0 mi SSE 21.9 mph 27.6 mph N/A   Overcast
12:15 PM 59.0 °F - 30.2 °F 34% 29.64 in 10.0 mi SSE 23.0 mph 31.1 mph N/A   Scattered Clouds
12:35 PM 60.8 °F - 30.2 °F 31% 29.64 in 10.0 mi SSE 24.2 mph 29.9 mph N/A   Clear
12:55 PM 59.0 °F - 32.0 °F 36% 29.62 in 10.0 mi SSE 24.2 mph 29.9 mph N/A   Clear
1:15 PM 60.8 °F - 32.0 °F 34% 29.62 in 10.0 mi SSE 19.6 mph - N/A   Clear
1:35 PM 60.8 °F - 33.8 °F 36% 29.60 in 10.0 mi SSE 21.9 mph 28.8 mph N/A   Clear
1:55 PM 60.8 °F - 33.8 °F 36% 29.59 in 10.0 mi South 21.9 mph 27.6 mph N/A   Clear
2:15 PM 62.6 °F - 33.8 °F 34% 29.57 in 10.0 mi South 18.4 mph 27.6 mph N/A   Clear
2:35 PM 64.4 °F - 33.8 °F 32% 29.57 in 10.0 mi South 16.1 mph 21.9 mph N/A   Clear
2:55 PM 64.4 °F - 35.6 °F 34% 29.56 in 10.0 mi South 17.3 mph - N/A   Clear
3:15 PM 64.4 °F - 35.6 °F 34% 29.54 in 10.0 mi South 19.6 mph 28.8 mph N/A   Clear
3:35 PM 66.2 °F - 35.6 °F 32% 29.54 in 10.0 mi South 17.3 mph 23.0 mph N/A   Clear
3:55 PM 68.0 °F - 37.4 °F 33% 29.52 in 10.0 mi South 15.0 mph 23.0 mph N/A   Clear
4:15 PM 68.0 °F - 37.4 °F 33% 29.51 in 10.0 mi South 15.0 mph 21.9 mph N/A   Clear
4:35 PM 68.0 °F - 37.4 °F 33% 29.51 in 10.0 mi ESE 12.7 mph - N/A   Scattered Clouds
4:55 PM 68.0 °F - 37.4 °F 33% 29.51 in 10.0 mi ESE 12.7 mph - N/A   Clear
5:15 PM 68.0 °F - 37.4 °F 33% 29.48 in 10.0 mi ESE 16.1 mph 19.6 mph N/A   Clear
5:35 PM 68.0 °F - 37.4 °F 33% 29.49 in 10.0 mi East 12.7 mph - N/A   Clear
5:55 PM 66.2 °F - 37.4 °F 35% 29.50 in 10.0 mi East 15.0 mph - N/A   Clear
6:15 PM 64.4 °F - 37.4 °F 37% 29.50 in 10.0 mi East 11.5 mph - N/A   Clear
6:35 PM 62.6 °F - 39.2 °F 42% 29.51 in 10.0 mi ENE 20.7 mph 25.3 mph N/A   Clear
6:55 PM 60.8 °F - 39.2 °F 45% 29.52 in 10.0 mi ENE 17.3 mph 25.3 mph N/A   Clear
7:15 PM 60.8 °F - 39.2 °F 45% 29.52 in 10.0 mi East 19.6 mph 27.6 mph N/A   Clear
7:35 PM 55.4 °F - 37.4 °F 51% 29.53 in 10.0 mi ENE 17.3 mph 27.6 mph N/A   Clear
8:15 PM 53.6 °F - 37.4 °F 54% 29.57 in 10.0 mi ENE 17.3 mph 25.3 mph N/A   Clear
8:35 PM 51.8 °F - 37.4 °F 58% 29.58 in 10.0 mi ENE 19.6 mph 25.3 mph N/A   Clear
8:55 PM 51.8 °F - 37.4 °F 58% 29.58 in 10.0 mi ENE 18.4 mph 23.0 mph N/A   Clear
9:15 PM 51.8 °F - 35.6 °F 54% 29.58 in 10.0 mi NE 24.2 mph 29.9 mph N/A   Clear
9:35 PM 46.4 °F 39.0 °F 33.8 °F 62% 29.59 in 10.0 mi ENE 19.6 mph 24.2 mph N/A   Clear
9:55 PM 44.6 °F 37.4 °F 33.8 °F 66% 29.60 in 10.0 mi ENE 16.1 mph - N/A   Clear
10:15 PM 42.8 °F 35.1 °F 32.0 °F 66% 29.62 in 10.0 mi ENE 16.1 mph 24.2 mph N/A   Clear
10:35 PM 41.0 °F 32.2 °F 32.0 °F 70% 29.63 in 10.0 mi NE 18.4 mph - N/A   Scattered Clouds
10:55 PM 41.0 °F 33.5 °F 32.0 °F 70% 29.63 in 10.0 mi ENE 13.8 mph 25.3 mph N/A   Overcast
11:15 PM 42.8 °F 35.1 °F 32.0 °F 66% 29.64 in 10.0 mi ENE 16.1 mph 24.2 mph N/A   Overcast
11:35 PM 41.0 °F 33.1 °F 32.0 °F 70% 29.64 in 10.0 mi ENE 15.0 mph - N/A   Overcast
11:55 PM 41.0 °F 32.5 °F 32.0 °F 70% 29.66 in 10.0 mi ENE 17.3 mph 21.9 mph N/A   Overcast